Time,TemperatureF,DewpointF,PressureIn,WindDirection,WindDirectionDegrees,WindSpeedMPH,WindSpeedGustMPH,Humidity,HourlyPrecipIn,Conditions,Clouds,dailyrainin,SoftwareType,DateUTC
2013-03-24 00:00:00,34.9,25.4,30.04,ENE,59,6.0,6.0,68,0.00,,SCT250,0.00,VWS V14.01,2013-03-24 04:00:00,
2013-03-24 00:05:00,34.7,25.6,30.03,ENE,61,10.0,11.0,69,0.00,,SCT250,0.00,VWS V14.01,2013-03-24 04:05:00,
2013-03-24 00:10:00,34.5,25.7,30.02,NE,46,6.0,9.0,70,0.00,,SCT250,0.00,VWS V14.01,2013-03-24 04:10:00,
2013-03-24 00:15:00,34.2,25.8,30.01,East,82,8.0,11.0,71,0.00,,SCT250,0.00,VWS V14.01,2013-03-24 04:15:00,
2013-03-24 00:20:00,34.0,25.6,30.00,ENE,65,7.0,11.0,71,0.00,,SCT250,0.00,VWS V14.01,2013-03-24 04:20:00,
2013-03-24 00:25:00,33.9,25.8,30.00,ENE,62,7.0,14.0,72,0.00,,SCT250,0.00,VWS V14.01,2013-03-24 04:25:00,
2013-03-24 00:30:00,33.7,25.6,29.99,NE,35,10.0,11.0,72,0.00,,SCT250,0.00,VWS V14.01,2013-03-24 04:30:00,
2013-03-24 00:35:00,33.6,25.5,29.99,NE,36,7.0,10.0,72,0.00,,SCT250,0.00,VWS V14.01,2013-03-24 04:35:00,
2013-03-24 00:40:00,33.6,25.5,29.99,East,82,6.0,9.0,72,0.00,,SCT250,0.00,VWS V14.01,2013-03-24 04:40:00,
2013-03-24 00:45:00,33.5,25.5,29.99,ENE,57,8.0,11.0,72,0.00,,SCT250,0.00,VWS V14.01,2013-03-24 04:45:00,
2013-03-24 00:50:00,33.5,25.5,29.99,NE,49,8.0,15.0,72,0.00,,SCT250,0.00,VWS V14.01,2013-03-24 04:50:00,
2013-03-24 00:55:00,33.5,25.5,30.00,ENE,64,7.0,9.0,72,0.00,,SCT250,0.00,VWS V14.01,2013-03-24 04:55:00,
2013-03-24 01:00:00,33.4,25.4,29.99,NE,50,9.0,9.0,72,0.00,,SCT250,0.00,VWS V14.01,2013-03-24 05:00:00,
2013-03-24 01:05:00,33.3,25.3,29.99,East,87,5.0,11.0,72,0.00,,SCT250,0.00,VWS V14.01,2013-03-24 05:05:00,
2013-03-24 01:10:00,33.3,25.3,29.99,East,96,7.0,10.0,72,0.00,,SCT250,0.00,VWS V14.01,2013-03-24 05:10:00,
2013-03-24 01:15:00,33.3,25.3,29.99,NE,48,10.0,12.0,72,0.00,,SCT250,0.00,VWS V14.01,2013-03-24 05:15:00,
2013-03-24 01:20:00,33.3,25.3,29.99,ENE,72,6.0,9.0,72,0.00,,SCT250,0.00,VWS V14.01,2013-03-24 05:20:00,
2013-03-24 01:25:00,33.2,25.2,30.00,ENE,64,6.0,10.0,72,0.00,,SCT250,0.00,VWS V14.01,2013-03-24 05:25:00,
2013-03-24 01:30:00,33.2,25.2,29.99,NE,45,8.0,9.0,72,0.00,,SCT250,0.00,VWS V14.01,2013-03-24 05:30:00,
2013-03-24 01:35:00,33.2,25.2,29.99,ENE,65,5.0,14.0,72,0.00,,SCT250,0.00,VWS V14.01,2013-03-24 05:35:00,
2013-03-24 01:40:00,33.2,25.2,29.99,NE,46,5.0,11.0,72,0.00,,SCT250,0.00,VWS V14.01,2013-03-24 05:40:00,
2013-03-24 01:45:00,33.1,25.1,29.99,ENE,63,7.0,12.0,72,0.00,,SCT250,0.00,VWS V14.01,2013-03-24 05:45:00,
2013-03-24 01:50:00,33.1,25.1,29.99,ENE,69,10.0,11.0,72,0.00,,SCT250,0.00,VWS V14.01,2013-03-24 05:50:00,
2013-03-24 01:55:00,33.0,25.0,29.99,ENE,63,7.0,10.0,72,0.00,,SCT250,0.00,VWS V14.01,2013-03-24 05:55:00,
2013-03-24 02:00:00,32.9,24.9,29.99,NE,45,5.0,12.0,72,0.00,,SCT250,0.00,VWS V14.01,2013-03-24 06:00:00,
2013-03-24 02:05:00,32.9,24.9,29.99,ENE,68,12.0,12.0,72,0.00,,CLR,0.00,VWS V14.01,2013-03-24 06:05:00,
2013-03-24 02:10:00,32.8,24.8,29.99,ENE,71,8.0,9.0,72,0.00,,CLR,0.00,VWS V14.01,2013-03-24 06:10:00,
2013-03-24 02:15:00,32.8,24.8,29.99,NE,50,6.0,13.0,72,0.00,,CLR,0.00,VWS V14.01,2013-03-24 06:15:00,
2013-03-24 02:20:00,32.8,24.8,29.99,East,85,6.0,12.0,72,0.00,,CLR,0.00,VWS V14.01,2013-03-24 06:20:00,
2013-03-24 02:25:00,32.7,24.7,29.99,NE,46,7.0,10.0,72,0.00,,CLR,0.00,VWS V14.01,2013-03-24 06:25:00,
2013-03-24 02:30:00,32.5,24.5,29.99,ENE,65,12.0,12.0,72,0.00,,CLR,0.00,VWS V14.01,2013-03-24 06:30:00,
2013-03-24 02:35:00,32.5,24.5,29.98,East,99,5.0,12.0,72,0.00,,CLR,0.00,VWS V14.01,2013-03-24 06:35:00,
2013-03-24 02:40:00,32.5,24.5,29.98,NE,43,8.0,12.0,72,0.00,,CLR,0.00,VWS V14.01,2013-03-24 06:40:00,
2013-03-24 02:45:00,32.4,24.4,29.99,East,98,4.0,10.0,72,0.00,,CLR,0.00,VWS V14.01,2013-03-24 06:45:00,
2013-03-24 02:50:00,32.3,24.3,29.98,NE,49,9.0,11.0,72,0.00,,CLR,0.00,VWS V14.01,2013-03-24 06:50:00,
2013-03-24 02:55:00,32.3,24.3,29.99,East,89,8.0,13.0,72,0.00,,CLR,0.00,VWS V14.01,2013-03-24 06:55:00,
2013-03-24 03:00:00,32.4,24.4,29.99,ENE,66,8.0,12.0,72,0.00,,CLR,0.00,VWS V14.01,2013-03-24 07:00:00,
2013-03-24 03:05:00,32.3,24.3,30.00,ENE,59,10.0,11.0,72,0.00,,OVC200,0.00,VWS V14.01,2013-03-24 07:05:00,
2013-03-24 03:10:00,32.3,24.6,30.00,ENE,67,7.0,12.0,73,0.00,,OVC200,0.00,VWS V14.01,2013-03-24 07:10:00,
2013-03-24 03:15:00,32.1,24.4,29.99,ENE,64,11.0,12.0,73,0.00,,OVC200,0.00,VWS V14.01,2013-03-24 07:15:00,
2013-03-24 03:20:00,32.1,24.4,29.99,ENE,72,7.0,11.0,73,0.00,,OVC200,0.00,VWS V14.01,2013-03-24 07:20:00,
2013-03-24 03:25:00,32.0,24.3,29.99,East,86,5.0,11.0,73,0.00,,OVC200,0.00,VWS V14.01,2013-03-24 07:25:00,
2013-03-24 03:30:00,32.0,24.3,29.99,East,86,6.0,9.0,73,0.00,,OVC200,0.00,VWS V14.01,2013-03-24 07:30:00,
2013-03-24 03:35:00,31.9,24.2,30.00,East,94,4.0,10.0,73,0.00,,OVC200,0.00,VWS V14.01,2013-03-24 07:35:00,
2013-03-24 03:40:00,31.8,24.1,30.00,ENE,70,6.0,9.0,73,0.00,,OVC200,0.00,VWS V14.01,2013-03-24 07:40:00,
2013-03-24 03:45:00,31.8,24.1,30.00,ENE,65,7.0,11.0,73,0.00,,OVC200,0.00,VWS V14.01,2013-03-24 07:45:00,
2013-03-24 03:50:00,31.7,24.4,30.00,East,92,11.0,11.0,74,0.00,,OVC200,0.00,VWS V14.01,2013-03-24 07:50:00,
2013-03-24 03:55:00,31.6,24.3,30.00,ENE,75,9.0,11.0,74,0.00,,OVC200,0.00,VWS V14.01,2013-03-24 07:55:00,
2013-03-24 04:00:00,31.7,24.4,30.00,ENE,70,8.0,8.0,74,0.00,,OVC200,0.00,VWS V14.01,2013-03-24 08:00:00,
2013-03-24 04:05:00,31.6,24.3,30.00,ENE,68,7.0,8.0,74,0.00,,OVC200,0.00,VWS V14.01,2013-03-24 08:05:00,
2013-03-24 04:10:00,31.5,24.2,30.00,ENE,58,8.0,14.0,74,0.00,,OVC200,0.00,VWS V14.01,2013-03-24 08:10:00,
2013-03-24 04:15:00,31.4,24.4,30.01,ENE,68,4.0,6.0,75,0.00,,OVC200,0.00,VWS V14.01,2013-03-24 08:15:00,
2013-03-24 04:20:00,31.4,24.4,30.00,ENE,72,5.0,8.0,75,0.00,,OVC200,0.00,VWS V14.01,2013-03-24 08:20:00,
2013-03-24 04:25:00,31.3,24.3,30.00,NE,53,5.0,10.0,75,0.00,,OVC200,0.00,VWS V14.01,2013-03-24 08:25:00,
2013-03-24 04:30:00,31.3,24.3,30.00,ENE,60,6.0,11.0,75,0.00,,OVC200,0.00,VWS V14.01,2013-03-24 08:30:00,
2013-03-24 04:35:00,31.2,24.2,30.00,ENE,70,9.0,11.0,75,0.00,,OVC200,0.00,VWS V14.01,2013-03-24 08:35:00,
2013-03-24 04:40:00,31.2,24.2,29.99,NE,37,7.0,10.0,75,0.00,,OVC200,0.00,VWS V14.01,2013-03-24 08:40:00,
2013-03-24 04:45:00,31.2,24.2,29.98,ENE,60,7.0,10.0,75,0.00,,OVC200,0.00,VWS V14.01,2013-03-24 08:45:00,
2013-03-24 04:50:00,31.1,24.1,29.98,ENE,72,5.0,11.0,75,0.00,,OVC200,0.00,VWS V14.01,2013-03-24 08:50:00,
2013-03-24 04:55:00,31.1,24.1,29.98,ENE,72,9.0,10.0,75,0.00,,OVC200,0.00,VWS V14.01,2013-03-24 08:55:00,
2013-03-24 05:00:00,31.1,24.4,29.97,ENE,75,5.0,10.0,76,0.00,,OVC200,0.00,VWS V14.01,2013-03-24 09:00:00,
2013-03-24 05:05:00,31.0,24.3,29.97,NE,50,5.0,8.0,76,0.00,,OVC200,0.00,VWS V14.01,2013-03-24 09:05:00,
2013-03-24 05:10:00,31.0,24.0,29.97,East,87,10.0,12.0,75,0.00,,OVC200,0.00,VWS V14.01,2013-03-24 09:10:00,
2013-03-24 05:15:00,31.0,24.0,29.97,NE,44,7.0,11.0,75,0.00,,OVC200,0.00,VWS V14.01,2013-03-24 09:15:00,
2013-03-24 05:20:00,31.1,24.1,29.97,NE,56,9.0,13.0,75,0.00,,OVC200,0.00,VWS V14.01,2013-03-24 09:20:00,
2013-03-24 05:25:00,31.1,24.1,29.97,ENE,74,11.0,15.0,75,0.00,,OVC200,0.00,VWS V14.01,2013-03-24 09:25:00,
2013-03-24 05:29:00,31.1,24.1,29.96,NE,37,7.0,11.0,75,0.00,,OVC200,0.00,VWS V14.01,2013-03-24 09:29:00,
2013-03-24 05:35:00,31.2,24.2,29.96,NE,50,9.0,12.0,75,0.00,,OVC200,0.00,VWS V14.01,2013-03-24 09:35:00,
2013-03-24 05:39:00,31.2,23.9,29.96,ENE,62,11.0,15.0,74,0.00,,OVC200,0.00,VWS V14.01,2013-03-24 09:39:00,
2013-03-24 05:44:00,31.1,24.1,29.95,ENE,66,11.0,13.0,75,0.00,,OVC200,0.00,VWS V14.01,2013-03-24 09:44:00,
2013-03-24 05:49:00,31.1,23.8,29.95,ENE,77,10.0,13.0,74,0.00,,OVC200,0.00,VWS V14.01,2013-03-24 09:49:00,
2013-03-24 05:54:00,31.1,23.8,29.95,ENE,60,6.0,14.0,74,0.00,,OVC200,0.00,VWS V14.01,2013-03-24 09:54:00,
2013-03-24 05:59:00,31.0,24.0,29.95,ENE,57,9.0,11.0,75,0.00,,OVC200,0.00,VWS V14.01,2013-03-24 09:59:00,
2013-03-24 06:04:00,31.0,23.7,29.95,NE,50,14.0,16.0,74,0.00,,CLR,0.00,VWS V14.01,2013-03-24 10:04:00,
2013-03-24 06:09:00,31.0,23.7,29.95,ENE,76,9.0,14.0,74,0.00,,CLR,0.00,VWS V14.01,2013-03-24 10:09:00,
2013-03-24 06:14:00,30.9,23.6,29.95,ENE,63,8.0,15.0,74,0.00,,CLR,0.00,VWS V14.01,2013-03-24 10:14:00,
2013-03-24 06:19:00,30.9,23.6,29.94,ENE,71,9.0,12.0,74,0.00,,CLR,0.00,VWS V14.01,2013-03-24 10:19:00,
2013-03-24 06:24:00,31.0,23.7,29.94,ENE,60,8.0,14.0,74,0.00,,CLR,0.00,VWS V14.01,2013-03-24 10:24:00,
2013-03-24 06:29:00,31.0,23.7,29.94,NE,43,13.0,13.0,74,0.00,,CLR,0.00,VWS V14.01,2013-03-24 10:29:00,
2013-03-24 06:34:00,30.9,23.6,29.94,ENE,75,13.0,17.0,74,0.00,,CLR,0.00,VWS V14.01,2013-03-24 10:34:00,
2013-03-24 06:39:00,31.0,23.7,29.94,ENE,71,7.0,15.0,74,0.00,,CLR,0.00,VWS V14.01,2013-03-24 10:39:00,
2013-03-24 06:44:00,31.0,23.7,29.94,ENE,63,7.0,12.0,74,0.00,,CLR,0.00,VWS V14.01,2013-03-24 10:44:00,
2013-03-24 06:49:00,31.0,23.4,29.93,ENE,75,8.0,14.0,73,0.00,,CLR,0.00,VWS V14.01,2013-03-24 10:49:00,
2013-03-24 06:54:00,31.0,23.4,29.93,ENE,72,7.0,12.0,73,0.00,,CLR,0.00,VWS V14.01,2013-03-24 10:54:00,
2013-03-24 06:59:00,31.0,23.4,29.93,NE,54,5.0,11.0,73,0.00,,CLR,0.00,VWS V14.01,2013-03-24 10:59:00,
2013-03-24 07:04:00,31.0,23.4,29.93,ENE,58,6.0,10.0,73,0.00,,OVC200,0.00,VWS V14.01,2013-03-24 11:04:00,
2013-03-24 07:09:00,31.0,23.4,29.92,ENE,62,5.0,12.0,73,0.00,,OVC200,0.00,VWS V14.01,2013-03-24 11:09:00,
2013-03-24 07:14:00,31.0,23.4,29.92,ENE,67,7.0,13.0,73,0.00,,OVC200,0.00,VWS V14.01,2013-03-24 11:14:00,
2013-03-24 07:19:00,31.0,23.4,29.92,ENE,75,7.0,9.0,73,0.00,,OVC200,0.00,VWS V14.01,2013-03-24 11:19:00,
2013-03-24 07:24:00,31.0,23.0,29.91,North,3,7.0,10.0,72,0.00,,OVC200,0.00,VWS V14.01,2013-03-24 11:24:00,
2013-03-24 07:29:00,31.0,23.0,29.90,NE,50,6.0,7.0,72,0.00,,OVC200,0.00,VWS V14.01,2013-03-24 11:29:00,
2013-03-24 07:34:00,31.0,22.7,29.90,ENE,65,10.0,15.0,71,0.00,,OVC200,0.00,VWS V14.01,2013-03-24 11:34:00,
2013-03-24 07:39:00,31.1,22.8,29.90,ENE,63,13.0,13.0,71,0.00,,OVC200,0.00,VWS V14.01,2013-03-24 11:39:00,
2013-03-24 07:44:00,31.0,22.7,29.89,ENE,60,9.0,11.0,71,0.00,,OVC200,0.00,VWS V14.01,2013-03-24 11:44:00,
2013-03-24 07:49:00,31.0,22.7,29.89,ENE,57,12.0,15.0,71,0.00,,OVC200,0.00,VWS V14.01,2013-03-24 11:49:00,
2013-03-24 07:54:00,31.1,22.8,29.88,ESE,121,14.0,15.0,71,0.00,,OVC200,0.00,VWS V14.01,2013-03-24 11:54:00,
2013-03-24 07:59:00,31.2,22.9,29.88,ENE,63,14.0,18.0,71,0.00,,OVC200,0.00,VWS V14.01,2013-03-24 11:59:00,
2013-03-24 08:04:00,31.2,22.6,29.87,East,100,13.0,17.0,70,0.00,,OVC140,0.00,VWS V14.01,2013-03-24 12:04:00,
2013-03-24 08:09:00,31.3,22.7,29.87,NNE,29,11.0,18.0,70,0.00,,OVC140,0.00,VWS V14.01,2013-03-24 12:09:00,
2013-03-24 08:14:00,31.3,22.3,29.87,ENE,75,22.0,22.0,69,0.00,,OVC140,0.00,VWS V14.01,2013-03-24 12:14:00,
2013-03-24 08:19:00,31.4,22.4,29.86,ENE,73,11.0,18.0,69,0.00,,OVC140,0.00,VWS V14.01,2013-03-24 12:19:00,
2013-03-24 08:24:00,31.4,22.4,29.86,NE,56,15.0,18.0,69,0.00,,OVC140,0.00,VWS V14.01,2013-03-24 12:24:00,
2013-03-24 08:29:00,31.4,22.4,29.86,ENE,68,10.0,18.0,69,0.00,,OVC140,0.00,VWS V14.01,2013-03-24 12:29:00,
2013-03-24 08:34:00,31.5,22.5,29.86,ENE,59,14.0,16.0,69,0.00,,OVC140,0.00,VWS V14.01,2013-03-24 12:34:00,
2013-03-24 08:39:00,31.6,22.3,29.87,NE,39,10.0,16.0,68,0.00,,OVC140,0.00,VWS V14.01,2013-03-24 12:39:00,
2013-03-24 08:44:00,31.6,22.3,29.87,ENE,72,11.0,15.0,68,0.00,,OVC140,0.00,VWS V14.01,2013-03-24 12:44:00,
2013-03-24 08:53:00,31.7,22.4,29.86,ENE,68,10.0,14.0,68,0.00,,OVC140,0.00,VWS V14.01,2013-03-24 12:53:00,
2013-03-24 08:58:00,31.8,22.5,29.86,NE,49,9.0,14.0,68,0.00,,OVC140,0.00,VWS V14.01,2013-03-24 12:58:00,
2013-03-24 09:03:00,31.8,22.8,29.86,NE,37,8.0,12.0,69,0.00,,OVC140,0.00,VWS V14.01,2013-03-24 13:03:00,
2013-03-24 09:08:00,31.8,22.5,29.86,ESE,102,9.0,16.0,68,0.00,,OVC140,0.00,VWS V14.01,2013-03-24 13:08:00,
2013-03-24 09:13:00,31.9,22.9,29.86,ENE,75,12.0,18.0,69,0.00,,OVC140,0.00,VWS V14.01,2013-03-24 13:13:00,
2013-03-24 09:18:00,32.0,22.6,29.85,East,82,9.0,21.0,68,0.00,,OVC140,0.00,VWS V14.01,2013-03-24 13:18:00,
2013-03-24 09:23:00,32.0,22.6,29.85,East,85,16.0,16.0,68,0.00,,OVC140,0.00,VWS V14.01,2013-03-24 13:23:00,
2013-03-24 09:28:00,32.1,22.8,29.84,ENE,76,10.0,13.0,68,0.00,,OVC140,0.00,VWS V14.01,2013-03-24 13:28:00,
2013-03-24 09:33:00,32.3,22.6,29.83,ENE,58,16.0,19.0,67,0.00,,OVC140,0.00,VWS V14.01,2013-03-24 13:33:00,
2013-03-24 09:38:00,32.3,22.6,29.83,ENE,63,12.0,18.0,67,0.00,,OVC140,0.00,VWS V14.01,2013-03-24 13:38:00,
2013-03-24 09:43:00,32.4,22.3,29.83,East,86,9.0,16.0,66,0.00,,OVC140,0.00,VWS V14.01,2013-03-24 13:43:00,
2013-03-24 09:48:00,32.6,22.5,29.82,NE,50,10.0,19.0,66,0.00,,OVC140,0.00,VWS V14.01,2013-03-24 13:48:00,
2013-03-24 09:53:00,32.7,22.6,29.82,ENE,72,17.0,18.0,66,0.00,,OVC140,0.00,VWS V14.01,2013-03-24 13:53:00,
2013-03-24 09:58:00,32.8,22.3,29.82,ENE,78,7.0,17.0,65,0.00,,OVC140,0.00,VWS V14.01,2013-03-24 13:58:00,
2013-03-24 10:03:00,33.2,22.7,29.83,ENE,71,8.0,17.0,65,0.00,,OVC140,0.00,VWS V14.01,2013-03-24 14:03:00,
2013-03-24 10:08:00,33.5,22.6,29.83,ENE,65,3.0,8.0,64,0.00,,OVC140,0.00,VWS V14.01,2013-03-24 14:08:00,
2013-03-24 10:13:00,33.7,22.5,29.83,East,80,10.0,13.0,63,0.00,,OVC140,0.00,VWS V14.01,2013-03-24 14:13:00,
2013-03-24 10:18:00,33.7,21.7,29.82,ENE,58,9.0,18.0,61,0.00,,OVC140,0.00,VWS V14.01,2013-03-24 14:18:00,
2013-03-24 10:23:00,33.8,22.2,29.82,ENE,63,10.0,15.0,62,0.00,,OVC140,0.00,VWS V14.01,2013-03-24 14:23:00,
2013-03-24 10:28:00,33.9,21.9,29.82,ENE,57,13.0,16.0,61,0.00,,OVC140,0.00,VWS V14.01,2013-03-24 14:28:00,
2013-03-24 10:33:00,34.0,22.4,29.81,ENE,78,11.0,12.0,62,0.00,,OVC140,0.00,VWS V14.01,2013-03-24 14:33:00,
2013-03-24 10:38:00,33.9,21.9,29.81,ENE,64,11.0,12.0,61,0.00,,OVC140,0.00,VWS V14.01,2013-03-24 14:38:00,
2013-03-24 10:43:00,33.9,21.5,29.81,ENE,64,10.0,18.0,60,0.00,,OVC140,0.00,VWS V14.01,2013-03-24 14:43:00,
2013-03-24 10:48:00,33.8,21.8,29.81,East,89,7.0,15.0,61,0.00,,OVC140,0.00,VWS V14.01,2013-03-24 14:48:00,
2013-03-24 10:53:00,33.9,21.5,29.80,ENE,69,8.0,13.0,60,0.00,,OVC140,0.00,VWS V14.01,2013-03-24 14:53:00,
2013-03-24 10:58:00,33.9,21.5,29.80,East,79,7.0,13.0,60,0.00,,OVC140,0.00,VWS V14.01,2013-03-24 14:58:00,
2013-03-24 11:03:00,34.0,22.0,29.80,East,91,9.0,11.0,61,0.00,,OVC150,0.00,VWS V14.01,2013-03-24 15:03:00,
2013-03-24 11:08:00,34.1,21.7,29.80,East,84,12.0,13.0,60,0.00,,OVC150,0.00,VWS V14.01,2013-03-24 15:08:00,
2013-03-24 11:13:00,34.1,21.3,29.80,ENE,72,12.0,14.0,59,0.00,,OVC150,0.00,VWS V14.01,2013-03-24 15:13:00,
2013-03-24 11:18:00,34.1,21.7,29.80,East,95,8.0,13.0,60,0.00,,OVC150,0.00,VWS V14.01,2013-03-24 15:18:00,
2013-03-24 11:23:00,34.2,21.4,29.80,ENE,60,14.0,17.0,59,0.00,,OVC150,0.00,VWS V14.01,2013-03-24 15:23:00,
2013-03-24 11:28:00,34.2,21.4,29.80,NNE,15,10.0,16.0,59,0.00,,OVC150,0.00,VWS V14.01,2013-03-24 15:28:00,
2013-03-24 11:33:00,34.4,22.0,29.80,ENE,59,13.0,15.0,60,0.00,,OVC150,0.00,VWS V14.01,2013-03-24 15:33:00,
2013-03-24 11:38:00,34.6,21.4,29.79,ENE,64,18.0,18.0,58,0.00,,OVC150,0.00,VWS V14.01,2013-03-24 15:38:00,
2013-03-24 11:43:00,34.6,21.4,29.79,NE,48,13.0,13.0,58,0.00,,OVC150,0.00,VWS V14.01,2013-03-24 15:43:00,
2013-03-24 11:48:00,34.7,21.9,29.79,ENE,75,7.0,14.0,59,0.00,,OVC150,0.00,VWS V14.01,2013-03-24 15:48:00,
2013-03-24 11:53:00,34.7,21.5,29.79,NE,49,12.0,16.0,58,0.00,,OVC150,0.00,VWS V14.01,2013-03-24 15:53:00,
2013-03-24 11:58:00,34.8,21.5,29.78,ENE,58,7.0,11.0,58,0.00,,OVC150,0.00,VWS V14.01,2013-03-24 15:58:00,
2013-03-24 12:03:00,34.9,21.2,29.78,ENE,59,11.0,19.0,57,0.00,,OVC100,0.00,VWS V14.01,2013-03-24 16:03:00,
2013-03-24 12:08:00,34.9,21.2,29.78,ENE,59,9.0,17.0,57,0.00,,OVC100,0.00,VWS V14.01,2013-03-24 16:08:00,
2013-03-24 12:13:00,34.9,20.8,29.78,ENE,68,11.0,17.0,56,0.00,,OVC100,0.00,VWS V14.01,2013-03-24 16:13:00,
2013-03-24 12:18:00,35.0,21.3,29.78,NE,37,8.0,10.0,57,0.00,,OVC100,0.00,VWS V14.01,2013-03-24 16:18:00,
2013-03-24 12:23:00,35.2,20.7,29.78,North,5,8.0,15.0,55,0.00,,OVC100,0.00,VWS V14.01,2013-03-24 16:23:00,
2013-03-24 12:28:00,35.3,21.2,29.78,ENE,57,11.0,11.0,56,0.00,,OVC100,0.00,VWS V14.01,2013-03-24 16:28:00,
2013-03-24 12:33:00,35.3,20.8,29.78,NE,46,12.0,17.0,55,0.00,,OVC100,0.00,VWS V14.01,2013-03-24 16:33:00,
2013-03-24 12:38:00,35.4,20.9,29.78,ENE,68,12.0,15.0,55,0.00,,OVC100,0.00,VWS V14.01,2013-03-24 16:38:00,
2013-03-24 12:43:00,35.3,20.8,29.78,NE,45,6.0,11.0,55,0.00,,OVC100,0.00,VWS V14.01,2013-03-24 16:43:00,
2013-03-24 12:48:00,35.4,20.9,29.78,NE,52,6.0,11.0,55,0.00,,OVC100,0.00,VWS V14.01,2013-03-24 16:48:00,
2013-03-24 12:53:00,35.5,21.0,29.78,NE,37,14.0,14.0,55,0.00,,OVC100,0.00,VWS V14.01,2013-03-24 16:53:00,
2013-03-24 12:58:00,35.5,20.5,29.77,NE,49,16.0,18.0,54,0.00,,OVC100,0.00,VWS V14.01,2013-03-24 16:58:00,
2013-03-24 13:03:00,35.6,21.0,29.77,NE,51,13.0,13.0,55,0.00,,OVC075,0.00,VWS V14.01,2013-03-24 17:03:00,
2013-03-24 13:08:00,35.7,21.1,29.77,NE,56,9.0,14.0,55,0.00,,OVC075,0.00,VWS V14.01,2013-03-24 17:08:00,
2013-03-24 13:13:00,35.8,20.8,29.77,ENE,68,11.0,17.0,54,0.00,,OVC075,0.00,VWS V14.01,2013-03-24 17:13:00,
2013-03-24 13:18:00,35.9,20.9,29.77,NE,45,9.0,9.0,54,0.00,,OVC075,0.00,VWS V14.01,2013-03-24 17:18:00,
2013-03-24 13:23:00,36.0,21.4,29.77,ENE,66,6.0,8.0,55,0.00,,OVC075,0.00,VWS V14.01,2013-03-24 17:23:00,
2013-03-24 13:28:00,36.0,21.0,29.77,NE,56,9.0,11.0,54,0.00,,OVC075,0.00,VWS V14.01,2013-03-24 17:28:00,
2013-03-24 13:33:00,36.0,21.0,29.77,ENE,58,4.0,11.0,54,0.00,,OVC075,0.00,VWS V14.01,2013-03-24 17:33:00,
2013-03-24 13:38:00,36.0,21.0,29.76,ENE,78,11.0,12.0,54,0.00,,OVC075,0.00,VWS V14.01,2013-03-24 17:38:00,
2013-03-24 13:43:00,36.0,21.0,29.76,NE,45,5.0,11.0,54,0.00,,OVC075,0.00,VWS V14.01,2013-03-24 17:43:00,
2013-03-24 13:48:00,36.0,21.4,29.76,ENE,58,6.0,10.0,55,0.00,,OVC075,0.00,VWS V14.01,2013-03-24 17:48:00,
2013-03-24 13:53:00,35.7,22.4,29.76,East,87,5.0,13.0,58,0.00,,OVC075,0.00,VWS V14.01,2013-03-24 17:53:00,
2013-03-24 13:58:00,34.9,23.6,29.76,ENE,68,9.0,10.0,63,0.00,,OVC075,0.00,VWS V14.01,2013-03-24 17:58:00,
2013-03-24 14:03:00,34.0,25.6,29.76,ENE,63,10.0,15.0,71,0.00,,OVC050,0.00,VWS V14.01,2013-03-24 18:03:00,
2013-03-24 14:08:00,32.9,26.2,29.75,ENE,70,10.0,14.0,76,0.00,,OVC050,0.00,VWS V14.01,2013-03-24 18:08:00,
2013-03-24 14:13:00,32.2,27.0,29.75,ENE,68,8.0,14.0,81,0.00,,OVC050,0.00,VWS V14.01,2013-03-24 18:13:00,
2013-03-24 14:18:00,31.9,27.3,29.74,NE,44,10.0,14.0,83,0.00,,OVC050,0.00,VWS V14.01,2013-03-24 18:18:00,
2013-03-24 14:23:00,31.6,27.9,29.73,ENE,68,7.0,13.0,86,0.00,,OVC050,0.00,VWS V14.01,2013-03-24 18:23:00,
2013-03-24 14:28:00,31.3,28.2,29.72,East,97,8.0,15.0,88,0.00,,OVC050,0.00,VWS V14.01,2013-03-24 18:28:00,
2013-03-24 14:33:00,31.2,28.3,29.71,East,85,17.0,17.0,89,0.00,,OVC050,0.00,VWS V14.01,2013-03-24 18:33:00,
2013-03-24 14:38:00,31.0,28.4,29.70,ENE,71,10.0,17.0,90,0.00,,OVC050,0.00,VWS V14.01,2013-03-24 18:38:00,
2013-03-24 14:43:00,30.9,28.3,29.70,East,87,15.0,17.0,90,0.00,,OVC050,0.00,VWS V14.01,2013-03-24 18:43:00,
2013-03-24 14:48:00,31.0,28.7,29.69,East,82,9.0,11.0,91,0.00,,,0.00,VWS V14.01,2013-03-24 18:48:00,
2013-03-24 14:53:00,31.0,29.0,29.70,East,98,10.0,14.0,92,0.00,,,0.00,VWS V14.01,2013-03-24 18:53:00,
2013-03-24 14:58:00,31.0,29.0,29.69,ENE,72,9.0,12.0,92,0.00,,,0.00,VWS V14.01,2013-03-24 18:58:00,
2013-03-24 15:03:00,31.0,29.0,29.69,NE,49,11.0,14.0,92,0.00,,,0.00,VWS V14.01,2013-03-24 19:03:00,
2013-03-24 15:08:00,31.0,29.2,29.69,ENE,64,10.0,12.0,93,0.00,,,0.00,VWS V14.01,2013-03-24 19:08:00,
2013-03-24 15:13:00,31.1,29.3,29.69,East,89,12.0,14.0,93,0.00,,,0.00,VWS V14.01,2013-03-24 19:13:00,
2013-03-24 15:18:00,31.1,29.3,29.68,ENE,63,15.0,15.0,93,0.00,,,0.00,VWS V14.01,2013-03-24 19:18:00,
2013-03-24 15:23:00,31.3,29.5,29.67,ENE,60,8.0,11.0,93,0.00,,,0.00,VWS V14.01,2013-03-24 19:23:00,
2013-03-24 15:28:00,31.4,29.6,29.67,East,89,8.0,20.0,93,0.00,,,0.00,VWS V14.01,2013-03-24 19:28:00,
2013-03-24 15:33:00,31.4,29.4,29.67,NE,47,14.0,16.0,92,0.00,,,0.00,VWS V14.01,2013-03-24 19:33:00,
2013-03-24 15:38:00,31.5,29.5,29.67,ENE,75,7.0,14.0,92,0.00,,,0.00,VWS V14.01,2013-03-24 19:38:00,
2013-03-24 15:43:00,31.6,29.8,29.66,ENE,65,8.0,15.0,93,0.00,,,0.00,VWS V14.01,2013-03-24 19:43:00,
2013-03-24 15:48:00,31.6,29.5,29.66,ENE,70,14.0,21.0,92,0.00,,,0.00,VWS V14.01,2013-03-24 19:48:00,
2013-03-24 15:53:00,31.5,29.5,29.66,East,86,8.0,14.0,92,0.00,,,0.00,VWS V14.01,2013-03-24 19:53:00,
2013-03-24 15:58:00,31.6,29.5,29.65,East,96,7.0,19.0,92,0.00,,,0.00,VWS V14.01,2013-03-24 19:58:00,
2013-03-24 16:03:00,31.7,29.6,29.65,NE,56,15.0,17.0,92,0.00,,,0.00,VWS V14.01,2013-03-24 20:03:00,
2013-03-24 16:08:00,31.8,29.5,29.64,NE,46,9.0,17.0,91,0.00,,,0.00,VWS V14.01,2013-03-24 20:08:00,
2013-03-24 16:13:00,31.9,29.6,29.64,ENE,65,13.0,19.0,91,0.00,,,0.00,VWS V14.01,2013-03-24 20:13:00,
2013-03-24 16:18:00,32.0,29.7,29.63,NE,43,17.0,19.0,91,0.00,,,0.00,VWS V14.01,2013-03-24 20:18:00,
2013-03-24 16:23:00,32.3,30.0,29.63,ENE,70,10.0,15.0,91,0.00,,,0.00,VWS V14.01,2013-03-24 20:23:00,
2013-03-24 16:28:00,32.3,29.7,29.62,East,96,15.0,19.0,90,0.00,,,0.00,VWS V14.01,2013-03-24 20:28:00,
2013-03-24 16:33:00,32.4,29.8,29.62,ENE,70,10.0,15.0,90,0.00,,,0.00,VWS V14.01,2013-03-24 20:33:00,
2013-03-24 16:38:00,32.6,29.7,29.62,NE,49,19.0,20.0,89,0.00,,,0.00,VWS V14.01,2013-03-24 20:38:00,
2013-03-24 16:43:00,32.7,29.8,29.62,ENE,63,8.0,15.0,89,0.00,,,0.00,VWS V14.01,2013-03-24 20:43:00,
2013-03-24 16:48:00,32.8,29.9,29.61,ENE,72,11.0,16.0,89,0.00,,,0.00,VWS V14.01,2013-03-24 20:48:00,
2013-03-24 16:53:00,32.9,29.7,29.61,East,89,13.0,24.0,88,0.00,,,0.00,VWS V14.01,2013-03-24 20:53:00,
2013-03-24 16:58:00,33.1,29.9,29.60,ENE,70,12.0,17.0,88,0.00,,,0.00,VWS V14.01,2013-03-24 20:58:00,
2013-03-24 17:03:00,33.1,29.7,29.60,ENE,66,12.0,19.0,87,0.00,,OVC037,0.00,VWS V14.01,2013-03-24 21:03:00,
2013-03-24 17:08:00,33.1,29.9,29.60,NE,54,20.0,22.0,88,0.00,,OVC037,0.00,VWS V14.01,2013-03-24 21:08:00,
2013-03-24 17:13:00,33.0,29.6,29.60,ENE,76,22.0,25.0,87,0.00,,OVC037,0.00,VWS V14.01,2013-03-24 21:13:00,
2013-03-24 17:18:00,33.0,29.8,29.59,ENE,70,9.0,19.0,88,0.00,,OVC037,0.00,VWS V14.01,2013-03-24 21:18:00,
2013-03-24 17:23:00,33.0,29.8,29.59,East,94,8.0,16.0,88,0.00,,OVC037,0.00,VWS V14.01,2013-03-24 21:23:00,
2013-03-24 17:28:00,33.1,29.9,29.60,ENE,64,11.0,12.0,88,0.00,,OVC037,0.00,VWS V14.01,2013-03-24 21:28:00,
2013-03-24 17:34:00,33.1,29.9,29.60,East,89,11.0,14.0,88,0.00,,OVC037,0.00,VWS V14.01,2013-03-24 21:34:00,
2013-03-24 17:39:00,33.2,30.0,29.61,ENE,72,14.0,15.0,88,0.00,,OVC037,0.00,VWS V14.01,2013-03-24 21:39:00,
2013-03-24 17:44:00,33.3,29.9,29.62,NE,56,15.0,15.0,87,0.00,,OVC037,0.00,VWS V14.01,2013-03-24 21:44:00,
2013-03-24 17:49:00,33.4,30.0,29.61,East,79,10.0,15.0,87,0.00,,OVC037,0.00,VWS V14.01,2013-03-24 21:49:00,
2013-03-24 17:54:00,33.4,30.0,29.61,ENE,68,9.0,16.0,87,0.00,,OVC037,0.00,VWS V14.01,2013-03-24 21:54:00,
2013-03-24 17:59:00,33.4,30.0,29.61,ENE,58,13.0,16.0,87,0.00,,OVC037,0.00,VWS V14.01,2013-03-24 21:59:00,
2013-03-24 18:04:00,33.5,30.0,29.61,ENE,76,11.0,13.0,87,0.00,,OVC037,0.00,VWS V14.01,2013-03-24 22:04:00,
2013-03-24 18:09:00,33.5,30.0,29.61,ENE,68,5.0,8.0,87,0.00,,OVC037,0.00,VWS V14.01,2013-03-24 22:09:00,
2013-03-24 18:14:00,33.5,30.0,29.60,NE,54,10.0,15.0,87,0.00,,OVC037,0.00,VWS V14.01,2013-03-24 22:14:00,
2013-03-24 18:19:00,33.5,30.0,29.60,NE,48,6.0,11.0,87,0.00,,OVC037,0.00,VWS V14.01,2013-03-24 22:19:00,
2013-03-24 18:24:00,33.6,29.9,29.60,ENE,57,14.0,17.0,86,0.00,,OVC037,0.00,VWS V14.01,2013-03-24 22:24:00,
2013-03-24 18:29:00,33.6,30.1,29.59,NE,44,7.0,15.0,87,0.00,,OVC037,0.00,VWS V14.01,2013-03-24 22:29:00,
2013-03-24 18:34:00,33.6,30.1,29.59,ENE,74,5.0,9.0,87,0.00,,OVC037,0.00,VWS V14.01,2013-03-24 22:34:00,
2013-03-24 18:39:00,33.5,30.0,29.59,ENE,71,9.0,13.0,87,0.00,,OVC037,0.00,VWS V14.01,2013-03-24 22:39:00,
2013-03-24 18:44:00,33.5,30.0,29.58,ENE,62,14.0,15.0,87,0.00,,OVC037,0.00,VWS V14.01,2013-03-24 22:44:00,
2013-03-24 18:49:00,33.6,30.1,29.58,ENE,57,11.0,14.0,87,0.00,,OVC037,0.00,VWS V14.01,2013-03-24 22:49:00,
2013-03-24 18:54:00,33.6,30.1,29.58,ENE,68,7.0,12.0,87,0.00,,OVC037,0.00,VWS V14.01,2013-03-24 22:54:00,
2013-03-24 18:59:00,33.6,30.1,29.58,ENE,71,8.0,14.0,87,0.00,,OVC037,0.00,VWS V14.01,2013-03-24 22:59:00,
2013-03-24 19:04:00,33.6,30.1,29.58,ENE,65,9.0,14.0,87,0.00,,OVC033,0.00,VWS V14.01,2013-03-24 23:04:00,
2013-03-24 19:09:00,33.6,30.1,29.58,ENE,71,11.0,11.0,87,0.00,,OVC033,0.00,VWS V14.01,2013-03-24 23:09:00,
2013-03-24 19:14:00,33.7,30.2,29.58,ENE,73,6.0,11.0,87,0.00,,OVC033,0.00,VWS V14.01,2013-03-24 23:14:00,
2013-03-24 19:19:00,33.7,30.2,29.58,ENE,70,6.0,10.0,87,0.00,,OVC033,0.00,VWS V14.01,2013-03-24 23:19:00,
2013-03-24 19:24:00,33.7,30.0,29.58,ESE,110,8.0,12.0,86,0.00,,OVC033,0.00,VWS V14.01,2013-03-24 23:24:00,
2013-03-24 19:29:00,33.8,30.4,29.58,ENE,66,5.0,8.0,87,0.00,,OVC033,0.00,VWS V14.01,2013-03-24 23:29:00,
2013-03-24 19:34:00,33.7,30.2,29.58,East,82,11.0,14.0,87,0.00,,OVC033,0.00,VWS V14.01,2013-03-24 23:34:00,
2013-03-24 19:39:00,33.8,30.4,29.58,ENE,58,10.0,14.0,87,0.00,,OVC033,0.00,VWS V14.01,2013-03-24 23:39:00,
2013-03-24 19:44:00,33.8,30.4,29.57,ENE,65,11.0,14.0,87,0.00,,OVC033,0.00,VWS V14.01,2013-03-24 23:44:00,
2013-03-24 19:49:00,33.9,30.2,29.57,ENE,72,10.0,16.0,86,0.00,,,0.00,VWS V14.01,2013-03-24 23:49:00,
2013-03-24 19:54:00,33.9,30.2,29.56,ENE,77,10.0,15.0,86,0.00,,,0.00,VWS V14.01,2013-03-24 23:54:00,
2013-03-24 19:59:00,33.9,30.2,29.56,East,90,12.0,19.0,86,0.00,,,0.00,VWS V14.01,2013-03-24 23:59:00,
2013-03-24 20:04:00,33.9,30.2,29.55,ENE,72,13.0,19.0,86,0.00,,OVC032,0.00,VWS V14.01,2013-03-25 00:04:00,
2013-03-24 20:09:00,34.0,30.3,29.55,ENE,65,14.0,19.0,86,0.00,,OVC032,0.00,VWS V14.01,2013-03-25 00:09:00,
2013-03-24 20:14:00,33.9,30.5,29.55,ENE,76,12.0,16.0,87,0.00,,OVC032,0.00,VWS V14.01,2013-03-25 00:14:00,
2013-03-24 20:19:00,33.9,30.5,29.55,ENE,63,14.0,19.0,87,0.00,,OVC032,0.00,VWS V14.01,2013-03-25 00:19:00,
2013-03-24 20:24:00,33.9,30.5,29.55,East,82,9.0,17.0,87,0.00,,OVC032,0.00,VWS V14.01,2013-03-25 00:24:00,
2013-03-24 20:28:00,33.9,30.5,29.55,ENE,70,9.0,13.0,87,0.00,,OVC032,0.00,VWS V14.01,2013-03-25 00:28:00,
2013-03-24 20:33:00,34.0,30.5,29.54,ENE,68,11.0,16.0,87,0.00,,OVC032,0.00,VWS V14.01,2013-03-25 00:33:00,
2013-03-24 20:39:00,34.1,30.6,29.54,ENE,58,8.0,14.0,87,0.00,,OVC032,0.00,VWS V14.01,2013-03-25 00:39:00,
2013-03-24 20:44:00,34.2,30.7,29.53,ENE,67,13.0,16.0,87,0.00,,OVC032,0.00,VWS V14.01,2013-03-25 00:44:00,
2013-03-24 20:49:00,34.4,30.9,29.53,ESE,108,8.0,10.0,87,0.00,,OVC032,0.00,VWS V14.01,2013-03-25 00:49:00,
2013-03-24 20:54:00,34.5,30.8,29.52,NE,55,10.0,14.0,86,0.00,,OVC032,0.00,VWS V14.01,2013-03-25 00:54:00,
2013-03-24 20:59:00,34.6,30.6,29.52,ENE,68,16.0,17.0,85,0.00,,OVC032,0.00,VWS V14.01,2013-03-25 00:59:00,
2013-03-24 21:04:00,34.7,30.7,29.52,ENE,66,7.0,16.0,85,0.00,,OVC030,0.00,VWS V14.01,2013-03-25 01:04:00,
2013-03-24 21:09:00,34.7,30.7,29.52,ENE,73,10.0,14.0,85,0.00,,OVC030,0.00,VWS V14.01,2013-03-25 01:09:00,
2013-03-24 21:14:00,34.7,31.0,29.52,East,79,12.0,14.0,86,0.00,,OVC030,0.00,VWS V14.01,2013-03-25 01:14:00,
2013-03-24 21:19:00,34.7,31.0,29.53,ENE,68,5.0,12.0,86,0.00,,OVC030,0.00,VWS V14.01,2013-03-25 01:19:00,
2013-03-24 21:24:00,34.7,31.0,29.54,East,93,8.0,8.0,86,0.00,,OVC030,0.00,VWS V14.01,2013-03-25 01:24:00,
2013-03-24 21:29:00,34.7,31.0,29.55,SE,131,3.0,8.0,86,0.00,,OVC030,0.00,VWS V14.01,2013-03-25 01:29:00,
2013-03-24 21:34:00,34.7,31.0,29.56,ESE,103,5.0,6.0,86,0.00,,OVC030,0.00,VWS V14.01,2013-03-25 01:34:00,
2013-03-24 21:39:00,34.8,31.3,29.55,East,98,7.0,7.0,87,0.00,,OVC030,0.00,VWS V14.01,2013-03-25 01:39:00,
2013-03-24 21:44:00,34.7,31.2,29.55,East,97,4.0,9.0,87,0.00,,OVC030,0.00,VWS V14.01,2013-03-25 01:44:00,
2013-03-24 21:49:00,34.7,31.2,29.55,East,96,4.0,6.0,87,0.00,,OVC030,0.00,VWS V14.01,2013-03-25 01:49:00,
2013-03-24 21:54:00,34.5,31.3,29.54,NE,43,2.0,6.0,88,0.00,,OVC030,0.00,VWS V14.01,2013-03-25 01:54:00,
2013-03-24 21:59:00,34.3,31.1,29.54,ESE,109,7.0,9.0,88,0.00,,OVC030,0.00,VWS V14.01,2013-03-25 01:59:00,
2013-03-24 22:04:00,34.1,31.2,29.53,ENE,59,6.0,7.0,89,0.00,,,0.00,VWS V14.01,2013-03-25 02:04:00,
2013-03-24 22:09:00,33.9,31.0,29.53,ENE,62,4.0,9.0,89,0.00,,,0.00,VWS V14.01,2013-03-25 02:09:00,
2013-03-24 22:14:00,33.7,31.1,29.52,NE,48,6.0,7.0,90,0.00,,,0.00,VWS V14.01,2013-03-25 02:14:00,
2013-03-24 22:19:00,33.6,31.0,29.52,NE,48,4.0,9.0,90,0.00,,,0.00,VWS V14.01,2013-03-25 02:19:00,
2013-03-24 22:24:00,33.4,31.1,29.52,ENE,65,6.0,9.0,91,0.00,,,0.00,VWS V14.01,2013-03-25 02:24:00,
2013-03-24 22:29:00,33.2,30.9,29.52,ENE,63,3.0,6.0,91,0.00,,,0.00,VWS V14.01,2013-03-25 02:29:00,
2013-03-24 22:34:00,33.1,31.0,29.52,East,87,0.0,2.0,92,0.00,,OVC032,0.00,VWS V14.01,2013-03-25 02:34:00,
2013-03-24 22:39:00,33.0,30.9,29.53,East,82,2.0,2.0,92,0.00,,OVC032,0.00,VWS V14.01,2013-03-25 02:39:00,
2013-03-24 22:44:00,32.9,31.1,29.53,ESE,105,0.0,1.0,93,0.00,,OVC032,0.00,VWS V14.01,2013-03-25 02:44:00,
2013-03-24 22:49:00,32.8,31.0,29.53,ENE,72,0.0,1.0,93,0.00,,OVC032,0.00,VWS V14.01,2013-03-25 02:49:00,
2013-03-24 22:54:00,32.7,30.9,29.53,ENE,72,1.0,1.0,93,0.00,,OVC032,0.00,VWS V14.01,2013-03-25 02:54:00,
2013-03-24 22:59:00,32.5,30.7,29.53,ENE,72,0.0,0.0,93,0.00,,OVC032,0.00,VWS V14.01,2013-03-25 02:59:00,
2013-03-24 23:04:00,32.3,30.5,29.52,NNE,30,2.0,2.0,93,0.00,,,0.00,VWS V14.01,2013-03-25 03:04:00,
2013-03-24 23:09:00,32.0,30.5,29.52,NE,51,0.0,1.0,94,0.00,,,0.00,VWS V14.01,2013-03-25 03:09:00,
2013-03-24 23:14:00,31.9,30.4,29.52,NNE,30,1.0,2.0,94,0.00,,,0.00,VWS V14.01,2013-03-25 03:14:00,
2013-03-24 23:19:00,31.8,30.5,29.51,NNE,32,2.0,2.0,95,0.00,,,0.00,VWS V14.01,2013-03-25 03:19:00,
2013-03-24 23:24:00,31.8,30.5,29.51,NE,47,2.0,2.0,95,0.00,,,0.00,VWS V14.01,2013-03-25 03:24:00,
2013-03-24 23:29:00,31.8,30.5,29.51,NNE,31,2.0,2.0,95,0.00,,,0.00,VWS V14.01,2013-03-25 03:29:00,
2013-03-24 23:34:00,31.8,30.5,29.50,ENE,57,2.0,2.0,95,0.00,,,0.00,VWS V14.01,2013-03-25 03:34:00,
2013-03-24 23:39:00,31.8,30.5,29.50,NE,34,2.0,3.0,95,0.00,,,0.00,VWS V14.01,2013-03-25 03:39:00,
2013-03-24 23:44:00,31.8,30.5,29.49,ENE,63,2.0,4.0,95,0.00,,,0.00,VWS V14.01,2013-03-25 03:44:00,
2013-03-24 23:49:00,31.8,30.5,29.49,NNE,27,2.0,3.0,95,0.00,,,0.00,VWS V14.01,2013-03-25 03:49:00,
2013-03-24 23:54:00,31.8,30.8,29.49,NE,37,2.0,3.0,96,0.00,,,0.00,VWS V14.01,2013-03-25 03:54:00,
2013-03-24 23:59:00,31.8,30.8,29.49,NE,36,2.0,2.0,96,0.00,,,0.00,VWS V14.01,2013-03-25 03:59:00,